Date,TemperatureHighF,TemperatureAvgF,TemperatureLowF,DewpointHighF,DewpointAvgF,DewpointLowF,HumidityHigh,HumidityAvg,HumidityLow,PressureMaxIn,PressureMinIn,WindSpeedMaxMPH,WindSpeedAvgMPH,GustSpeedMaxMPH,PrecipitationSumIn
2013-1-1,34.7,18.3,10.0,20.9,13.7,6.9,92,83,53,30.67,30.54,5,1,8,0.00
2013-1-2,17.8,11.4,6.7,14.1,8.6,3.9,91,88,83,30.66,30.59,6,1,7,0.00
2013-1-3,33.0,17.2,2.9,19.2,10.5,-0.4,93,76,51,30.59,30.42,10,2,15,0.00
2013-1-4,44.3,26.7,15.2,29.3,19.0,11.5,88,73,50,30.50,30.35,14,2,17,0.00
2013-1-5,30.6,25.7,19.1,26.3,21.0,16.1,89,82,68,30.36,30.27,8,1,14,0.00
2013-1-6,41.6,32.7,24.0,30.4,26.5,20.2,89,78,62,30.29,30.14,18,3,22,0.00
2013-1-7,46.9,39.8,34.6,38.2,33.2,27.7,89,77,65,30.18,30.05,20,7,27,0.00
2013-1-8,49.2,42.2,36.5,39.0,35.6,31.3,85,78,67,30.18,30.00,20,8,24,0.00
2013-1-9,45.1,37.1,25.4,36.1,29.9,21.3,87,76,62,30.00,29.73,21,5,31,0.02
2013-1-10,33.5,26.2,22.4,26.4,20.3,17.3,88,79,60,30.09,29.89,12,3,16,0.02
2013-1-11,30.1,21.2,15.2,18.1,14.8,11.7,88,77,56,30.34,30.07,8,2,15,0.00
2013-1-12,29.1,17.0,10.4,15.2,9.7,6.5,84,74,47,30.47,30.33,12,4,14,0.00
2013-1-13,30.7,16.7,6.9,11.7,6.9,2.0,82,67,36,30.55,30.44,15,5,17,0.00
2013-1-14,42.0,26.1,14.8,23.8,14.5,6.3,76,62,41,30.57,30.46,15,6,19,0.00
2013-1-15,52.7,35.5,24.4,27.0,21.5,16.3,77,59,33,30.66,30.54,14,5,18,0.00
2013-1-16,55.3,38.2,28.4,26.0,20.8,17.7,70,52,23,30.63,30.50,18,8,21,0.00
2013-1-17,55.3,36.3,25.5,26.3,21.7,16.9,83,58,23,30.52,30.39,11,3,13,0.00
2013-1-18,55.3,36.4,23.8,26.2,21.5,18.8,83,57,29,30.43,30.35,11,3,17,0.00
2013-1-19,58.7,37.6,28.4,26.8,21.3,17.1,72,54,20,30.43,30.34,12,4,17,0.00
2013-1-20,51.4,34.3,24.5,21.9,18.9,16.6,74,56,26,30.46,30.36,10,2,12,0.00
2013-1-21,55.4,35.9,24.3,21.1,16.7,10.4,74,49,17,30.38,30.22,17,4,20,0.00
2013-1-22,50.5,33.0,22.7,24.4,19.2,14.1,79,59,31,30.24,30.09,10,2,13,0.00
2013-1-23,52.9,40.2,31.8,36.5,28.5,20.2,84,64,37,30.12,29.88,12,2,22,0.00
2013-1-24,51.9,42.3,31.2,39.3,35.2,29.3,96,77,55,30.17,30.10,18,4,21,0.00
2013-1-25,46.3,42.0,35.5,40.6,37.9,33.4,96,86,78,30.14,29.91,16,4,19,0.01
2013-1-26,45.5,34.4,29.3,34.9,26.2,22.0,94,73,44,30.05,29.91,13,3,17,0.01
2013-1-27,38.9,31.8,26.2,26.8,23.8,19.8,87,73,49,30.13,30.04,12,4,15,0.00
2013-1-28,37.3,34.4,31.2,28.3,26.5,23.9,82,73,64,30.15,30.05,12,3,20,0.00
2013-1-29,49.1,40.0,36.3,34.7,30.4,27.8,77,69,56,30.39,30.11,13,5,24,0.00
2013-1-30,48.6,41.3,36.6,36.3,32.7,28.0,82,71,60,30.43,30.38,13,5,15,0.00
2013-1-31,50.9,38.4,30.8,34.6,31.3,28.2,90,77,51,30.39,30.29,12,4,15,0.00
2013-2-1,52.6,37.3,27.8,34.8,29.1,24.5,89,74,43,30.43,30.32,11,3,16,0.00
2013-2-2,52.6,35.9,24.3,34.4,28.8,21.8,92,77,49,30.45,30.31,10,2,11,0.00
2013-2-3,59.2,43.0,28.3,31.5,27.2,23.7,88,58,29,30.32,30.14,11,4,14,0.00
2013-2-4,54.7,45.0,36.1,29.3,25.1,19.8,63,46,29,30.15,29.91,12,3,15,0.00
2013-2-5,48.4,39.8,32.2,33.4,25.5,19.3,82,58,40,30.04,29.88,21,4,25,0.00
2013-2-6,49.5,38.1,31.6,27.9,25.5,22.0,78,62,35,30.12,29.91,15,4,21,0.00
2013-2-7,39.7,33.6,27.4,29.3,24.7,20.0,89,71,51,30.09,29.88,11,2,17,0.00
2013-2-8,41.2,30.7,22.4,25.5,21.5,17.0,92,70,41,30.22,30.09,11,2,19,0.00
2013-2-9,44.1,30.7,21.8,29.5,22.9,16.5,87,74,54,30.28,30.19,11,3,14,0.00
2013-2-10,45.1,33.8,25.1,29.2,23.8,21.4,93,69,39,30.33,30.25,9,2,12,0.00
2013-2-11,51.1,36.3,27.0,32.3,25.8,21.7,85,67,39,30.36,30.23,16,6,18,0.00
2013-2-12,52.4,38.8,31.9,33.5,29.3,25.4,87,70,44,30.44,30.35,12,4,15,0.00
2013-2-13,48.5,39.2,31.9,35.4,31.2,28.1,89,74,56,30.45,30.37,12,3,16,0.00
2013-2-14,54.1,40.0,30.0,36.1,32.4,27.3,91,76,49,30.54,30.45,11,4,13,0.00
2013-2-15,58.8,41.9,29.0,37.8,33.1,26.6,94,73,43,30.51,30.26,9,3,13,0.00
2013-2-16,55.5,40.3,27.2,35.6,27.3,19.6,86,62,31,30.27,30.10,13,4,22,0.00
2013-2-17,45.5,33.0,25.0,25.0,20.9,14.9,87,65,30,30.21,30.08,8,2,11,0.00
2013-2-18,42.4,32.3,24.2,26.2,22.0,16.6,85,67,35,30.09,29.77,9,1,12,0.00
2013-2-19,43.2,31.5,24.8,26.8,22.5,19.1,85,70,44,29.98,29.70,10,2,13,0.00
2013-2-20,44.9,32.4,24.0,25.1,22.0,18.9,87,67,40,30.08,29.98,9,2,12,0.00
2013-2-21,40.6,32.8,25.4,27.2,24.5,21.6,89,72,47,30.19,30.06,13,4,17,0.00
2013-2-22,44.1,35.9,29.1,34.3,29.0,24.9,91,76,59,30.18,29.88,22,8,29,0.10
2013-2-23,39.6,30.3,23.4,27.4,22.2,19.4,86,72,49,30.41,30.02,14,3,19,0.00
2013-2-24,47.4,33.6,22.6,31.1,24.4,18.8,87,70,44,30.44,30.12,14,4,23,0.00
2013-2-25,43.1,35.3,25.1,32.6,23.8,14.1,90,64,41,30.33,30.04,21,5,28,0.02
2013-2-26,48.4,35.2,22.4,22.2,19.6,16.2,85,57,28,30.40,30.27,12,4,21,0.00
2013-2-27,48.9,39.6,32.7,33.3,24.7,18.0,68,55,47,30.32,30.26,14,4,19,0.00
2013-2-28,55.4,44.9,38.7,41.9,37.3,29.6,84,75,59,30.44,30.24,17,6,22,0.00
2013-3-1,62.1,48.8,41.0,38.8,35.4,32.6,82,62,34,30.47,30.27,12,4,18,0.00
2013-3-2,56.9,46.6,39.0,36.3,33.2,28.5,77,61,37,30.27,30.06,13,4,17,0.01
2013-3-3,44.4,35.7,24.9,32.4,20.4,6.3,85,58,22,30.22,30.05,10,2,13,0.00
2013-3-4,52.9,33.7,17.6,21.7,18.5,13.4,85,58,26,30.25,30.00,7,2,10,0.00
2013-3-5,44.8,35.0,27.2,32.7,26.4,19.8,89,71,53,30.00,29.69,6,1,8,0.00
2013-3-6,41.4,35.2,30.0,36.5,29.6,24.0,92,80,60,29.98,29.52,15,4,22,0.04
2013-3-7,46.1,34.9,24.3,29.6,25.4,20.8,88,70,43,30.07,29.98,10,2,16,0.00
2013-3-8,45.0,34.0,26.1,34.4,27.6,22.6,93,79,48,30.22,30.01,9,1,13,0.01
2013-3-9,55.1,38.5,25.6,26.9,21.8,16.5,81,56,22,30.49,30.22,12,4,15,0.00
2013-3-10,62.5,43.5,30.6,36.8,27.4,18.1,76,57,19,30.49,30.34,15,5,18,0.00
2013-3-11,58.9,47.1,38.7,40.9,38.1,34.6,88,72,47,30.37,30.20,12,3,12,0.00
2013-3-12,65.2,48.6,37.2,40.9,32.0,20.3,91,59,19,30.23,30.09,11,3,14,0.00
2013-3-13,66.2,53.0,43.6,37.5,32.1,25.8,63,46,31,30.17,30.07,12,4,18,0.00
2013-3-14,69.1,51.8,39.7,36.4,29.6,19.0,74,47,17,30.14,30.00,13,4,21,0.00
2013-3-15,60.3,47.9,37.5,39.7,34.1,29.0,82,61,36,30.15,30.08,13,3,14,0.00
2013-3-16,54.6,42.2,31.3,35.0,30.9,27.5,89,66,37,30.12,29.92,17,5,26,0.00
2013-3-17,47.2,33.9,25.8,28.5,21.8,18.5,86,63,35,30.21,30.00,12,2,16,0.00
2013-3-18,53.9,37.7,24.2,27.6,19.4,-5.5,87,56,9,30.26,30.15,8,2,14,0.00
2013-3-19,53.2,39.6,28.2,42.1,28.6,19.6,95,67,35,30.18,29.76,8,1,13,0.11
2013-3-20,48.9,42.3,31.5,42.5,34.6,19.8,90,75,48,30.06,29.59,21,7,29,0.09
2013-3-21,44.4,33.0,26.2,26.3,21.6,16.8,82,64,41,30.24,30.05,19,4,24,0.00
2013-3-22,41.2,31.3,24.0,22.7,19.0,14.9,85,63,35,30.36,30.22,18,4,22,0.00
2013-3-23,45.5,32.9,24.0,22.6,19.5,16.8,81,60,33,30.37,30.25,8,2,12,0.00
2013-3-24,47.8,35.9,24.0,26.7,23.2,18.2,82,61,40,30.28,30.14,7,1,12,0.00
2013-3-25,52.9,41.3,29.4,31.7,28.0,23.9,82,60,42,30.14,29.92,7,2,14,0.00
2013-3-26,51.0,42.4,35.9,39.0,35.8,30.1,90,78,59,29.97,29.92,6,1,11,0.01
2013-3-27,58.6,44.2,33.5,44.3,37.8,31.4,95,80,46,29.98,29.88,11,3,25,0.06
2013-3-28,60.1,46.5,40.1,45.4,41.6,38.5,96,85,49,30.11,29.98,8,1,12,0.31
2013-3-29,61.5,49.0,38.8,47.8,41.8,37.5,96,78,50,30.19,30.11,9,2,15,0.00
2013-3-30,70.7,53.0,38.1,47.3,40.8,35.3,90,67,32,30.19,30.02,9,3,13,0.00
2013-3-31,67.7,52.0,37.1,44.7,39.5,34.3,91,66,36,30.02,29.85,10,2,17,0.00
2013-4-1,63.9,51.0,39.9,44.9,41.2,37.5,93,71,46,30.08,29.89,10,2,15,0.00
2013-4-2,67.9,50.0,37.7,42.7,38.8,35.0,92,68,37,30.14,30.05,10,3,12,0.00
2013-4-3,68.9,50.7,35.7,41.7,34.6,27.5,94,61,22,30.13,29.92,10,3,15,0.00
2013-4-4,65.2,52.6,45.0,43.6,38.9,35.8,77,60,40,29.92,29.65,24,5,30,0.00
2013-4-5,56.6,46.7,41.1,42.0,38.0,35.2,89,73,46,29.93,29.83,16,6,21,0.04
2013-4-6,55.1,45.1,38.7,39.1,36.5,31.4,91,73,46,29.95,29.76,22,7,27,0.03
2013-4-7,48.2,41.4,32.6,38.0,31.9,24.8,89,70,46,29.85,29.62,23,6,29,0.02
2013-4-8,49.4,38.1,28.3,30.0,26.2,23.2,83,64,45,30.26,29.86,13,3,18,0.00
2013-4-9,60.2,43.7,27.8,36.8,28.7,15.2,85,61,18,30.35,30.26,9,3,12,0.00
2013-4-10,60.7,49.4,34.9,46.6,37.5,30.0,83,65,41,30.26,30.04,18,6,27,0.00
2013-4-11,56.0,40.6,26.6,31.6,27.6,23.9,92,64,33,30.22,30.12,10,2,15,0.00
2013-4-12,63.0,44.8,29.6,36.3,27.9,10.9,84,58,13,30.14,29.72,22,6,29,0.00
2013-4-13,50.3,41.3,29.5,35.1,24.1,17.4,76,52,29,30.02,29.71,19,4,36,0.00
2013-4-14,44.8,34.4,26.6,30.0,23.7,19.7,89,66,42,30.04,29.89,9,3,14,0.00
2013-4-15,43.3,33.9,29.0,37.1,29.9,26.8,93,86,58,30.14,29.89,14,2,18,0.18
2013-4-16,44.0,35.8,30.9,34.2,29.3,24.8,93,78,48,30.38,30.14,15,3,20,0.00
2013-4-17,52.4,38.0,24.8,28.1,23.5,17.1,90,60,27,30.49,30.38,13,3,16,0.00
2013-4-18,62.7,46.5,31.4,39.8,33.8,25.9,85,63,40,30.43,30.28,9,3,14,0.00
2013-4-19,59.1,49.2,39.7,41.9,37.6,32.8,80,66,40,30.28,30.08,20,6,24,0.00
2013-4-20,62.0,46.7,31.9,36.8,32.8,29.0,92,63,29,30.24,30.16,10,3,16,0.00
2013-4-21,61.1,47.5,36.8,40.7,35.5,27.8,85,65,38,30.19,30.10,12,4,23,0.00
2013-4-22,55.5,44.0,33.0,36.5,27.2,18.9,85,55,27,30.40,30.19,19,3,20,0.00
2013-4-23,65.4,45.0,26.5,22.1,15.2,-1.1,70,38,7,30.39,30.11,10,3,21,0.00
2013-4-24,68.7,49.1,27.4,24.3,19.0,10.8,69,36,11,30.29,30.02,14,2,14,0.00
2013-4-25,75.6,56.6,39.4,36.2,29.3,21.3,58,37,20,30.09,29.96,17,6,18,0.00
2013-4-26,78.5,60.1,43.8,40.2,34.0,21.3,70,43,14,30.17,30.08,12,4,16,0.00
2013-4-27,72.5,59.2,46.6,38.2,32.9,24.6,63,40,19,30.18,30.06,14,6,22,0.00
2013-4-28,65.6,53.3,38.4,38.8,32.5,26.2,77,47,27,30.12,30.02,19,3,21,0.00
2013-4-29,61.6,49.9,34.7,41.0,34.2,25.3,80,57,33,30.02,29.90,19,6,24,0.00
2013-4-30,54.5,38.4,24.7,27.2,22.4,19.0,83,56,28,30.42,30.01,12,2,17,0.00
2013-5-1,62.0,45.9,27.7,26.4,20.9,11.5,78,44,14,30.53,30.41,12,3,16,0.00
2013-5-2,75.0,56.7,34.1,29.7,18.9,-1.5,65,30,5,30.53,30.21,10,3,17,0.00
2013-5-3,71.6,57.4,41.6,35.0,30.4,26.2,59,38,21,30.23,30.10,21,3,22,0.00
2013-5-4,67.6,55.0,36.7,38.2,32.8,29.6,79,46,27,30.12,29.89,15,4,25,0.00
2013-5-5,73.7,59.2,46.0,39.7,34.4,31.0,57,41,25,29.90,29.70,17,4,21,0.00
2013-5-6,79.9,63.4,44.1,46.1,37.3,31.4,71,41,20,29.78,29.65,9,2,18,0.00
2013-5-7,78.4,63.7,50.2,47.9,43.8,32.2,83,53,19,29.86,29.72,15,5,20,0.00
2013-5-8,80.7,63.3,50.4,49.6,44.3,31.3,83,55,18,30.00,29.86,19,4,27,0.00
2013-5-9,84.1,63.1,50.3,54.7,47.2,38.9,86,61,22,30.06,29.95,13,5,23,0.07
2013-5-10,87.6,68.0,50.6,54.4,46.6,39.7,80,52,19,30.11,30.01,14,4,15,0.00
2013-5-11,88.9,71.5,56.6,55.0,49.5,38.0,77,51,18,30.09,29.90,14,4,18,0.00
2013-5-12,84.6,68.9,55.7,54.4,49.9,43.5,88,55,25,29.96,29.84,19,4,21,0.00
2013-5-13,73.4,58.2,43.1,50.3,43.2,35.8,89,60,37,30.07,29.88,19,4,29,0.00
2013-5-14,68.3,52.6,36.6,42.0,37.5,33.2,89,60,30,30.10,29.98,10,2,15,0.00
2013-5-15,66.8,50.9,41.2,49.6,40.7,36.1,85,70,36,30.04,29.91,12,2,15,0.05
2013-5-16,59.8,48.8,38.9,48.7,42.6,36.2,93,80,54,29.97,29.85,11,2,17,0.06
2013-5-17,61.0,48.9,39.1,43.1,39.9,35.0,92,73,46,30.03,29.90,11,2,15,0.01
2013-5-18,59.0,46.4,33.6,47.2,38.0,30.8,93,74,48,30.24,30.03,13,3,16,0.02
2013-5-19,65.4,50.6,37.4,43.9,37.3,33.7,88,64,33,30.32,30.23,9,3,15,0.00
2013-5-20,77.3,57.7,38.3,43.8,36.8,25.9,85,53,15,30.27,29.82,9,3,13,0.00
2013-5-21,59.8,48.7,33.7,43.9,34.0,24.5,85,58,33,29.86,29.63,19,6,30,0.02
2013-5-22,47.8,39.6,32.2,33.5,29.1,23.4,79,66,55,29.98,29.86,19,7,25,0.00
2013-5-23,59.6,45.8,32.9,35.2,31.0,26.6,83,59,31,29.99,29.92,12,3,16,0.00
2013-5-24,58.8,47.7,37.5,35.8,33.4,30.3,82,60,36,30.01,29.93,12,3,17,0.00
2013-5-25,66.4,49.9,34.4,45.5,35.8,30.4,93,63,30,30.01,29.90,11,2,13,0.03
2013-5-26,63.0,51.4,44.4,48.0,42.1,37.4,95,73,40,29.99,29.88,13,2,17,0.05
2013-5-27,59.8,49.9,42.2,49.2,42.0,37.1,86,74,60,29.96,29.74,16,4,23,0.00
2013-5-28,66.6,54.6,43.3,44.8,38.9,34.3,83,58,33,29.85,29.69,13,4,21,0.02
2013-5-29,60.8,51.6,43.6,45.7,40.5,35.4,93,68,43,29.95,29.60,25,6,27,0.06
2013-5-30,63.6,48.5,33.6,38.9,34.8,30.4,90,62,34,30.18,29.94,13,2,17,0.00
2013-5-31,70.7,53.5,35.4,40.3,34.4,25.2,88,55,19,30.26,30.15,10,2,14,0.00
2013-6-1,77.9,60.8,43.7,46.9,40.0,31.7,77,51,24,30.19,29.91,14,3,17,0.00
2013-6-2,74.0,58.3,45.6,46.9,41.4,32.3,87,58,23,29.97,29.84,14,3,18,0.00
2013-6-3,75.7,59.1,41.6,42.9,36.1,30.1,83,49,20,30.00,29.91,10,2,16,0.00
2013-6-4,80.6,63.1,44.9,43.6,35.6,30.5,66,40,19,30.02,29.93,10,2,14,0.00
2013-6-5,87.3,69.6,50.9,49.7,43.3,39.4,67,43,20,29.98,29.83,11,3,17,0.00
2013-6-6,87.6,70.7,55.5,55.4,49.0,42.8,74,50,22,29.89,29.79,11,3,16,0.00
2013-6-7,85.3,68.4,55.5,55.2,49.6,44.5,84,55,29,29.96,29.85,11,3,17,0.00
2013-6-8,88.7,69.3,50.8,51.2,42.1,23.1,83,46,11,29.97,29.87,10,3,17,0.00
2013-6-9,85.7,66.8,50.4,50.9,42.0,32.1,80,46,15,29.90,29.73,12,2,18,0.00
2013-6-10,78.3,60.4,43.5,40.3,35.6,24.8,77,45,16,29.80,29.66,12,2,17,0.00
2013-6-11,68.1,52.8,40.8,43.5,37.1,33.6,85,58,34,30.04,29.78,12,2,15,0.00
2013-6-12,65.5,49.7,34.6,41.2,35.7,31.0,89,62,34,30.09,30.02,11,3,18,0.00
2013-6-13,56.1,46.9,36.8,49.8,37.8,32.4,94,72,51,30.24,30.09,16,3,20,0.18
2013-6-14,72.1,55.7,38.2,42.4,35.4,28.9,89,53,21,30.23,29.95,8,2,12,0.00
2013-6-15,82.6,63.4,43.9,49.2,39.7,31.0,74,47,16,29.95,29.77,19,3,19,0.00
2013-6-16,82.5,64.0,52.1,60.1,47.5,41.0,80,58,23,29.99,29.83,13,3,19,0.07
2013-6-17,79.8,62.1,48.5,53.6,46.7,41.9,86,61,29,29.99,29.78,11,3,16,0.01
2013-6-18,62.7,53.7,46.4,51.7,44.8,38.6,89,73,49,29.88,29.78,12,2,19,0.11
2013-6-19,58.7,49.1,40.1,47.7,41.1,37.1,93,75,49,30.04,29.85,9,1,12,0.16
2013-6-20,63.0,50.3,37.4,42.3,37.6,34.2,89,64,37,30.08,29.99,12,2,17,0.00
2013-6-21,63.4,51.6,41.3,44.9,40.8,37.4,86,68,44,30.11,30.06,9,2,13,0.01
2013-6-22,76.8,60.5,42.0,48.4,42.6,37.7,86,56,28,30.09,29.82,9,3,14,0.00
2013-6-23,63.8,58.0,53.5,57.1,52.4,44.8,94,82,60,29.82,29.59,7,1,9,0.24
2013-6-24,60.7,53.9,49.3,53.3,49.5,47.1,95,86,66,29.69,29.58,9,2,14,0.10
2013-6-25,64.8,56.6,50.2,55.6,49.4,46.7,92,78,61,29.84,29.68,15,2,20,0.05
2013-6-26,69.8,58.7,50.5,61.8,53.2,47.0,91,82,64,30.02,29.83,8,2,10,0.12
2013-6-27,85.5,66.6,49.6,59.3,53.3,47.9,95,67,34,30.09,30.01,11,2,21,0.00
2013-6-28,91.7,73.5,56.0,61.4,56.4,52.8,89,60,30,30.09,29.89,11,2,17,0.00
2013-6-29,89.3,74.8,60.7,62.9,57.5,54.0,85,58,34,29.94,29.83,10,2,14,0.00
2013-6-30,95.5,76.9,57.9,61.6,56.0,52.4,83,53,27,29.91,29.73,9,2,17,0.00
2013-7-1,96.5,81.6,67.3,62.8,58.1,55.3,71,47,27,29.86,29.75,13,2,16,0.00
2013-7-2,99.7,81.7,67.7,64.6,59.2,48.1,80,51,20,29.88,29.78,12,3,15,0.00
2013-7-3,92.9,76.7,62.5,63.2,56.0,43.9,87,53,29,29.89,29.79,14,2,20,0.00
2013-7-4,85.5,68.8,53.0,49.4,44.0,34.1,76,45,18,29.88,29.77,13,2,18,0.00
2013-7-5,81.2,64.4,50.5,46.2,39.8,31.0,83,45,22,29.84,29.75,12,2,19,0.00
2013-7-6,84.0,62.2,44.3,47.6,37.4,31.8,72,45,16,29.84,29.71,11,2,16,0.00
2013-7-7,88.3,69.6,52.4,52.6,46.5,39.3,75,48,20,29.79,29.67,11,2,19,0.00
2013-7-8,86.9,66.6,52.0,51.0,43.9,33.3,83,51,17,29.95,29.79,10,2,13,0.00
2013-7-9,94.8,74.8,55.6,53.8,47.5,39.2,69,43,15,29.97,29.81,15,3,18,0.00
2013-7-10,91.9,74.7,61.3,57.6,49.2,38.1,70,45,19,29.88,29.69,11,3,16,0.00
2013-7-11,84.1,66.9,51.4,51.9,45.7,42.0,79,50,23,29.82,29.73,11,2,20,0.00
2013-7-12,80.9,62.6,50.1,45.8,40.4,28.5,79,49,16,29.95,29.78,14,3,18,0.00
2013-7-13,78.8,62.7,44.8,43.3,36.3,28.0,77,43,19,30.04,29.94,10,2,14,0.00
2013-7-14,89.7,69.5,47.9,47.9,37.6,28.4,58,34,16,30.03,29.82,13,3,18,0.00
2013-7-15,86.8,70.3,54.2,49.0,42.1,36.3,68,41,18,29.88,29.70,12,3,16,0.00
2013-7-16,83.6,70.7,60.9,49.9,40.6,34.1,51,34,23,29.83,29.70,12,3,16,0.00
2013-7-17,90.8,73.2,59.4,47.0,41.9,34.4,60,36,14,30.00,29.83,11,4,17,0.00
2013-7-18,92.8,73.7,56.0,51.3,42.4,32.0,62,38,13,30.02,29.87,12,3,18,0.00
2013-7-19,93.3,74.5,55.1,51.8,37.9,25.0,68,34,11,29.96,29.81,12,2,16,0.00
2013-7-20,94.3,74.5,58.6,51.7,39.1,17.8,70,36,8,29.87,29.74,11,3,19,0.00
2013-7-21,97.1,74.5,56.6,49.5,39.6,18.8,69,37,6,29.79,29.70,9,3,15,0.00
2013-7-22,94.8,74.2,57.1,46.3,38.9,22.4,62,34,8,29.86,29.77,11,3,15,0.00
2013-7-23,97.5,75.1,60.0,50.7,42.2,31.6,64,36,10,29.88,29.77,12,3,16,0.00
2013-7-24,90.7,75.3,61.3,50.6,43.0,24.3,61,36,10,29.89,29.82,7,2,13,0.00
2013-7-25,97.6,78.2,61.8,52.1,41.2,25.5,58,32,9,29.92,29.83,14,3,16,0.01
2013-7-26,96.2,78.1,62.0,47.1,37.9,28.9,45,26,10,29.95,29.83,14,3,21,0.00
2013-7-27,88.5,70.5,55.6,45.9,38.6,25.7,61,36,11,29.95,29.80,11,3,16,0.00
2013-7-28,84.1,66.0,51.0,46.3,39.1,27.0,72,43,16,29.85,29.76,12,3,18,0.00
2013-7-29,84.5,66.6,51.2,48.6,42.7,35.1,73,47,18,29.89,29.77,9,3,16,0.00
2013-7-30,86.7,68.3,47.2,48.8,41.0,24.5,89,46,11,30.00,29.89,11,2,16,0.00
2013-7-31,81.4,67.4,57.9,54.2,46.3,34.6,84,50,20,29.98,29.83,13,2,19,0.00
2013-8-1,73.0,60.1,50.5,58.5,50.1,44.0,94,71,41,29.98,29.85,10,3,15,0.01
2013-8-2,76.6,60.3,46.2,50.8,44.1,36.1,86,59,24,30.04,29.95,10,3,17,0.00
2013-8-3,83.9,65.7,48.7,51.2,43.1,33.9,82,50,17,30.02,29.88,10,3,15,0.02
2013-8-4,88.2,71.1,54.5,53.1,46.5,40.9,76,46,20,29.94,29.78,10,3,17,0.00
2013-8-5,88.3,72.0,58.4,54.0,47.3,35.7,66,45,17,29.88,29.77,10,3,17,0.00
2013-8-6,91.1,73.5,56.9,54.4,46.0,38.3,71,43,17,29.89,29.76,9,3,18,0.00
2013-8-7,82.8,69.7,57.4,51.4,45.2,39.3,63,43,22,29.90,29.79,15,3,23,0.00
2013-8-8,85.3,69.8,56.3,52.0,46.3,39.8,70,46,22,29.88,29.77,15,3,15,0.00
2013-8-9,85.2,67.6,55.4,61.8,50.7,44.9,84,57,26,29.85,29.70,25,3,27,0.07
2013-8-10,77.6,62.1,52.3,54.3,49.8,46.9,84,66,38,29.97,29.83,11,3,14,0.00
2013-8-11,83.9,64.9,52.6,51.8,48.6,43.8,81,59,26,29.98,29.86,14,4,19,0.00
2013-8-12,85.6,67.1,53.1,56.2,50.0,46.5,85,58,26,29.94,29.83,14,3,17,0.00
2013-8-13,86.2,69.9,54.9,54.3,48.8,43.5,81,52,23,29.96,29.82,13,3,16,0.00
2013-8-14,89.8,71.3,58.2,53.5,49.0,42.6,71,49,20,29.88,29.74,11,4,20,0.00
2013-8-15,90.8,70.1,57.1,53.9,50.1,41.3,74,53,18,29.86,29.74,15,3,19,0.00
2013-8-16,85.9,70.1,58.0,60.0,54.9,49.4,81,61,29,29.92,29.82,12,2,17,0.00
2013-8-17,85.0,69.5,58.1,59.0,54.1,50.3,85,61,34,29.96,29.83,10,2,14,0.00
2013-8-18,87.5,69.4,53.9,55.7,49.6,41.5,85,56,22,30.00,29.89,11,3,14,0.00
2013-8-19,88.9,71.0,56.2,54.1,49.8,44.5,80,52,23,29.97,29.84,11,3,15,0.00
2013-8-20,83.2,67.4,50.6,51.4,38.4,12.2,83,44,7,29.97,29.87,9,2,14,0.00
2013-8-21,84.5,68.8,53.0,48.0,39.3,32.8,63,36,19,29.94,29.83,8,2,11,0.00
2013-8-22,81.3,65.0,57.2,57.1,48.8,38.5,82,58,34,29.88,29.78,17,3,24,0.03
2013-8-23,82.2,66.5,54.6,56.3,50.5,47.7,81,59,31,29.83,29.71,12,4,18,0.00
2013-8-24,79.7,62.5,49.7,56.7,51.2,46.6,91,70,35,29.81,29.67,10,1,14,0.03
2013-8-25,73.0,58.3,50.9,62.0,52.9,49.2,94,83,53,29.90,29.71,15,1,37,0.47
2013-8-26,73.0,60.0,48.8,56.2,49.9,45.4,96,73,40,29.91,29.86,12,2,16,0.01
2013-8-27,83.2,64.0,49.7,54.7,49.2,40.2,87,63,22,29.90,29.69,8,2,15,0.00
2013-8-28,85.1,68.7,54.9,55.6,50.2,42.1,85,57,23,29.80,29.71,11,4,17,0.00
2013-8-29,80.2,67.8,58.2,54.3,51.4,45.9,83,59,31,29.96,29.77,14,4,20,0.00
2013-8-30,83.2,66.5,52.1,56.1,51.5,45.0,92,63,28,30.04,29.90,9,2,17,0.00
2013-8-31,87.2,69.1,53.2,56.5,51.8,46.5,90,59,25,29.97,29.75,8,2,12,0.00
2013-9-1,90.4,72.2,56.7,54.9,46.4,28.7,80,48,11,29.78,29.61,19,4,19,0.00
2013-9-2,85.0,67.3,55.9,54.9,51.3,38.0,82,61,19,29.81,29.66,12,2,16,0.00
2013-9-3,83.1,64.8,53.2,54.3,49.6,35.2,89,63,18,29.89,29.79,12,3,20,0.00
2013-9-4,83.6,64.8,52.3,54.1,48.4,36.9,86,61,19,29.92,29.82,11,3,16,0.00
2013-9-5,73.7,58.5,49.7,53.7,48.4,43.0,91,71,40,29.99,29.78,19,3,31,0.01
2013-9-6,71.5,59.0,50.7,51.9,48.0,44.8,87,69,47,30.07,29.99,13,4,20,0.01
2013-9-7,79.4,61.5,45.6,53.3,48.0,43.1,92,66,34,30.07,29.89,9,2,15,0.00
2013-9-8,76.2,62.2,50.9,53.9,48.9,45.6,86,65,37,29.99,29.95,10,2,15,0.00
2013-9-9,82.9,66.0,51.6,53.6,45.4,37.9,75,52,21,29.99,29.85,13,4,14,0.00
2013-9-10,85.0,68.3,53.9,52.6,46.3,43.0,74,49,23,29.90,29.80,10,3,14,0.00
2013-9-11,87.3,69.6,53.5,54.6,47.4,44.4,75,49,23,29.94,29.84,9,2,12,0.00
2013-9-12,88.6,71.9,54.5,53.9,46.9,39.8,72,45,20,29.90,29.77,11,2,13,0.00
2013-9-13,81.0,69.1,59.9,54.3,47.7,42.4,72,48,26,29.82,29.68,12,3,12,0.00
2013-9-14,87.4,70.6,58.2,54.8,49.3,44.6,69,50,23,29.75,29.63,13,4,13,0.00
2013-9-15,88.9,69.0,54.2,54.7,46.4,29.2,80,51,12,29.72,29.50,15,3,21,0.00
2013-9-16,71.0,59.1,49.7,50.5,46.2,44.1,83,64,44,29.81,29.72,12,3,17,0.00
2013-9-17,57.9,50.7,43.5,50.6,44.6,39.9,89,80,64,29.95,29.72,16,1,20,0.02
2013-9-18,64.4,50.9,41.6,44.0,39.1,34.3,92,68,35,30.07,29.95,10,2,11,0.00
2013-9-19,77.8,57.5,39.5,43.9,37.3,29.8,84,53,19,30.04,29.78,9,2,17,0.00
2013-9-20,77.5,57.5,43.7,46.9,39.5,33.2,75,55,20,29.79,29.51,15,5,19,0.00
2013-9-21,63.8,53.2,43.5,48.6,42.8,39.8,94,70,45,29.72,29.59,10,3,20,0.21
2013-9-22,59.5,50.5,43.3,48.3,43.4,40.7,93,77,58,29.84,29.69,17,6,29,0.01
2013-9-23,64.6,55.0,48.7,47.7,43.0,38.7,80,64,46,29.93,29.82,15,4,26,0.00
2013-9-24,54.6,48.1,40.9,45.5,41.8,37.8,89,79,57,29.90,29.79,12,2,17,0.10
2013-9-25,52.1,43.5,36.2,39.6,36.6,32.2,90,78,56,29.98,29.78,13,2,15,0.02
2013-9-26,54.1,42.7,33.8,40.9,35.2,30.9,91,76,53,30.17,29.98,16,2,16,0.00
2013-9-27,64.4,47.5,35.2,44.7,37.8,31.7,88,71,33,30.17,30.00,18,7,21,0.01
2013-9-28,63.6,55.1,48.7,49.8,46.4,42.7,93,73,52,30.00,29.53,27,8,35,0.35
2013-9-29,50.8,45.9,41.6,48.7,43.1,39.4,95,90,77,29.71,29.51,17,5,29,0.68
2013-9-30,53.6,45.4,36.1,48.7,38.2,33.3,95,77,59,30.00,29.56,18,5,26,0.04
2013-10-1,52.8,42.7,33.4,41.7,34.8,29.2,88,74,49,30.19,29.98,16,4,22,0.00
2013-10-2,50.1,39.5,29.9,36.1,32.3,27.6,92,77,46,30.19,30.05,8,2,11,0.02
2013-10-3,50.7,39.3,31.5,36.5,32.7,29.4,94,79,53,30.46,30.15,11,2,14,0.00
2013-10-4,57.8,43.5,32.1,36.2,31.8,27.1,90,67,31,30.54,30.41,11,3,12,0.00
2013-10-5,70.7,50.5,34.3,39.0,31.8,26.4,80,54,19,30.42,30.21,10,3,15,0.00
2013-10-6,75.7,54.6,38.8,40.6,33.8,29.7,72,49,21,30.21,29.94,14,3,18,0.00
2013-10-7,57.2,47.4,35.4,41.9,33.7,26.9,87,60,46,30.07,29.91,17,3,27,0.00
2013-10-8,50.0,41.0,33.8,42.1,35.6,30.9,92,82,58,30.09,29.93,12,2,15,0.08
2013-10-9,44.4,39.2,35.1,37.4,35.2,33.2,95,86,74,30.06,29.98,9,2,15,0.02
2013-10-10,58.3,43.5,35.0,38.9,34.4,31.8,89,73,45,30.06,29.94,11,3,15,0.00
2013-10-11,54.2,43.1,33.3,39.1,34.9,30.2,89,74,51,30.12,30.04,9,3,11,0.00
2013-10-12,47.8,41.0,34.2,38.8,35.2,31.0,90,80,63,30.15,30.02,11,2,11,0.00
2013-10-13,50.6,43.3,35.2,40.1,37.3,32.3,92,80,58,30.31,30.14,8,1,11,0.00
2013-10-14,54.8,41.1,31.9,37.8,32.7,28.8,93,74,46,30.41,30.31,11,2,14,0.00
2013-10-15,59.7,42.1,28.0,36.2,30.5,24.7,89,67,34,30.42,30.20,7,1,9,0.00
2013-10-16,64.2,46.3,35.2,33.4,29.9,26.7,74,56,27,30.20,30.09,11,3,15,0.00
2013-10-17,60.4,45.1,34.6,37.7,33.3,29.5,83,66,36,30.26,30.18,10,3,13,0.00
2013-10-18,62.4,45.9,34.9,40.1,35.2,29.7,85,68,37,30.28,30.17,10,3,12,0.00
2013-10-19,73.6,52.5,38.6,38.4,33.8,25.6,82,55,18,30.19,30.07,11,4,17,0.00
2013-10-20,68.8,51.3,38.7,38.1,34.0,29.6,71,54,28,30.15,30.08,12,3,15,0.00
2013-10-21,68.9,52.3,39.3,41.1,36.3,31.3,77,57,30,30.17,30.08,13,4,15,0.00
2013-10-22,68.8,50.7,38.3,42.7,37.3,32.4,81,63,32,30.15,30.03,12,3,14,0.00
2013-10-23,67.7,50.1,38.9,42.8,37.8,32.9,80,65,35,30.08,30.00,11,3,16,0.00
2013-10-24,68.5,49.8,38.6,44.0,38.9,34.1,85,69,33,30.11,30.01,11,3,13,0.00
2013-10-25,70.3,51.7,40.6,43.6,36.9,32.6,80,61,25,30.22,30.11,12,4,15,0.00
2013-10-26,69.3,50.1,38.0,41.7,35.8,31.3,78,61,27,30.24,30.07,12,4,17,0.00
2013-10-27,52.6,40.9,37.7,42.6,36.1,29.7,96,84,43,30.09,29.71,17,4,22,0.23
2013-10-28,40.0,34.1,30.2,39.0,29.7,23.2,96,84,70,29.98,29.76,15,4,24,0.04
2013-10-29,45.1,33.7,25.3,29.0,23.9,20.6,86,69,44,30.10,29.98,7,1,10,0.00
2013-10-30,56.9,41.0,28.9,36.3,30.9,25.0,89,70,38,30.18,30.09,10,3,13,0.00
2013-10-31,63.8,50.1,42.1,48.8,41.8,34.7,85,73,56,30.22,30.12,12,4,18,0.00
2013-11-1,57.1,46.1,37.3,46.0,41.0,35.5,94,83,65,30.24,29.94,12,4,17,0.00
2013-11-2,48.1,42.7,33.1,42.5,34.4,25.6,89,73,46,30.04,29.74,21,5,32,0.02
2013-11-3,44.1,37.0,32.7,31.0,28.5,25.9,83,72,50,30.13,30.01,16,3,16,0.00
2013-11-4,49.8,39.9,34.9,33.7,31.1,29.1,81,72,47,30.18,30.09,11,3,16,0.00
2013-11-5,50.7,44.9,38.9,42.6,38.8,32.2,87,79,72,30.22,30.11,18,7,22,0.00
2013-11-6,57.3,49.2,42.4,47.4,44.0,39.7,92,83,68,30.27,30.10,15,3,18,0.00
2013-11-7,54.3,44.4,36.8,45.8,38.2,28.6,93,79,57,30.10,29.84,18,4,37,0.07
2013-11-8,46.4,39.4,32.1,33.7,31.4,28.8,89,74,54,30.18,30.09,11,3,16,0.00
2013-11-9,53.3,39.9,28.7,38.4,32.7,25.6,92,77,50,30.14,30.07,13,2,20,0.00
2013-11-10,62.6,46.4,35.0,42.5,37.6,32.7,92,74,37,30.16,30.07,12,2,17,0.00
2013-11-11,42.3,38.1,33.1,37.9,35.5,31.0,95,91,83,30.27,30.15,4,0,8,0.01
2013-11-12,58.5,45.4,36.5,47.0,40.0,34.4,95,83,56,30.39,30.24,17,2,22,0.02
2013-11-13,56.5,42.3,32.7,41.1,34.8,28.4,95,77,42,30.44,30.26,7,2,12,0.00
2013-11-14,47.3,37.4,29.3,32.2,27.8,24.8,87,69,44,30.25,30.05,14,4,17,0.00
2013-11-15,43.9,35.6,29.1,30.6,27.4,25.0,87,73,55,30.07,29.58,21,6,28,0.00
2013-11-16,46.4,40.7,36.9,31.8,29.8,26.4,75,65,48,29.82,29.51,27,6,32,0.00
2013-11-17,47.6,40.3,35.4,33.7,30.7,28.6,79,69,55,30.02,29.82,19,6,26,0.00
2013-11-18,50.1,43.3,38.8,37.9,33.3,29.3,85,68,54,30.01,29.78,20,6,26,0.00
2013-11-19,49.1,44.1,40.2,45.3,39.5,36.2,91,84,75,29.81,29.74,18,7,25,0.04
2013-11-20,41.8,30.4,19.1,38.5,20.5,0.2,91,68,43,30.43,29.82,10,3,14,0.01
2013-11-21,32.1,20.3,11.7,7.6,3.9,0.1,71,50,29,30.77,30.43,6,1,9,0.00
2013-11-22,35.8,22.2,13.3,12.9,10.2,6.4,81,62,36,30.81,30.70,8,2,12,0.00
2013-11-23,36.7,22.4,11.9,18.2,13.6,8.0,88,70,45,30.70,30.43,8,1,8,0.00
2013-11-24,55.1,34.0,18.1,22.5,18.1,11.8,86,58,18,30.43,30.30,14,3,18,0.00
2013-11-25,52.6,35.1,25.4,23.9,21.0,18.9,80,58,28,30.41,30.34,11,2,12,0.00
2013-11-26,49.3,33.1,23.7,25.3,21.7,18.8,83,66,33,30.36,30.21,5,1,7,0.00
2013-11-27,45.4,33.9,25.3,27.5,24.4,20.9,84,69,48,30.21,30.07,8,1,10,0.00
2013-11-28,52.9,35.1,22.7,31.4,25.6,19.2,90,70,41,30.25,30.15,12,2,15,0.00
2013-11-29,56.9,42.5,32.6,31.9,27.7,25.2,75,58,34,30.31,30.23,15,5,19,0.00
2013-11-30,55.2,45.1,38.2,38.7,35.7,32.1,84,70,52,30.34,30.24,14,4,18,0.00
2013-12-1,55.3,49.9,44.1,45.0,39.8,34.8,83,69,55,30.24,29.82,26,10,39,0.00
2013-12-2,49.5,36.5,24.8,38.2,30.4,19.6,93,79,62,29.95,29.73,15,4,19,0.12
2013-12-3,28.2,22.0,15.1,23.7,16.0,7.5,89,78,66,30.29,29.94,12,2,16,0.01
2013-12-4,20.9,12.9,5.8,7.8,4.5,0.5,81,69,51,30.42,30.28,10,1,11,0.00
2013-12-5,25.1,13.3,4.0,9.9,5.4,-0.9,84,72,50,30.41,30.26,10,2,11,0.00
2013-12-6,12.8,10.5,9.0,8.2,6.6,5.1,88,84,80,30.29,30.08,9,2,14,0.14
2013-12-7,9.3,3.9,-5.5,5.4,-1.3,-10.2,84,79,66,30.54,30.14,15,4,18,0.01
2013-12-8,20.5,6.3,-8.0,13.4,0.9,-12.3,88,78,63,30.76,30.55,16,5,19,0.00
2013-12-9,31.2,17.2,6.8,21.2,10.4,1.9,89,75,60,30.75,30.55,18,5,22,0.00
2013-12-10,38.9,27.1,14.6,27.2,19.9,10.9,90,75,58,30.56,30.44,15,6,19,0.00
2013-12-11,42.4,27.7,14.4,28.6,21.5,11.4,95,78,57,30.46,30.35,10,2,15,0.00
2013-12-12,43.3,34.0,24.8,31.4,24.8,18.6,84,70,52,30.34,30.17,22,5,26,0.00
2013-12-13,48.6,37.7,31.5,35.8,31.8,28.5,91,80,60,30.46,30.23,11,4,17,0.00
2013-12-14,46.0,38.4,31.3,32.7,30.7,28.0,89,74,58,30.48,30.42,16,5,22,0.00
2013-12-15,56.5,43.5,35.3,38.4,30.0,24.6,87,60,37,30.44,30.33,17,5,18,0.00
2013-12-16,53.4,40.3,33.4,34.7,28.7,24.2,82,65,32,30.43,30.32,16,4,18,0.00
2013-12-17,57.4,44.0,37.9,31.7,26.5,23.7,63,51,33,30.32,30.08,16,3,19,0.00
2013-12-18,42.2,37.8,30.0,32.8,28.9,25.2,92,71,55,30.08,29.90,11,3,16,0.00
2013-12-19,31.3,25.5,20.1,27.2,16.6,11.9,88,69,48,30.27,29.99,9,2,13,0.00
2013-12-20,45.4,33.8,22.5,38.2,25.9,11.0,85,73,50,30.21,29.89,13,5,20,0.04
2013-12-21,51.9,41.9,33.2,35.8,33.0,29.8,90,71,45,30.16,29.90,16,3,22,0.00
2013-12-22,53.4,44.6,39.0,39.9,35.2,30.8,82,70,50,30.32,30.14,11,3,15,0.00
2013-12-23,55.5,45.4,33.2,42.0,32.7,24.6,87,62,44,30.44,30.21,22,6,24,0.00
2013-12-24,48.8,35.8,28.5,31.5,27.8,23.1,90,74,44,30.54,30.44,8,2,14,0.00
2013-12-25,51.7,39.5,32.7,31.3,27.3,23.8,78,63,34,30.52,30.40,12,3,17,0.00
2013-12-26,55.7,41.4,31.1,31.4,26.5,23.3,76,56,38,30.40,30.27,14,3,20,0.00
2013-12-27,50.4,40.0,31.9,30.3,25.4,22.7,74,56,41,30.30,30.16,16,4,20,0.00
2013-12-28,46.3,34.1,26.9,25.7,21.1,16.8,74,61,31,30.50,30.29,11,4,14,0.00
2013-12-29,47.7,35.9,27.2,22.8,18.5,15.4,72,51,29,30.49,30.32,12,5,18,0.00
2013-12-30,46.2,41.2,33.6,27.3,21.9,16.1,62,47,30,30.32,30.18,12,3,18,0.00
2013-12-31,52.5,44.3,36.7,27.7,23.5,20.4,61,44,30,30.30,30.20,11,3,14,0.00
2014-1-1,53.0,39.0,31.6,36.1,29.2,24.1,84,69,51,30.37,30.28,14,3,15,0.00
2014-1-2,59.5,44.8,33.7,34.7,30.5,27.9,81,60,38,30.31,30.01,18,5,26,0.00